Year,Month,Day,Hour,Minute,Value (Times are PST for temperature in C)
2012,06,01,10,48,13.60
2012,06,01,10,49,13.70
2012,06,01,10,50,13.70
2012,06,01,10,51,13.70
2012,06,01,10,52,13.70
2012,06,01,10,53,13.70
2012,06,01,10,54,13.70
2012,06,01,10,55,13.70
2012,06,01,10,56,13.70
2012,06,01,10,57,13.70
2012,06,01,10,58,13.70
2012,06,01,10,59,13.70
2012,06,01,11,00,13.70
2012,06,01,11,01,13.70
2012,06,01,11,02,13.80
2012,06,01,11,03,13.90
2012,06,01,11,04,13.90
2012,06,01,11,05,13.90
2012,06,01,11,06,13.90
2012,06,01,11,07,13.90
2012,06,01,11,08,13.90
2012,06,01,11,09,13.90
2012,06,01,11,10,13.90
2012,06,01,11,11,13.90
2012,06,01,11,12,13.90
2012,06,01,11,13,13.90
2012,06,01,11,14,13.90
2012,06,01,11,15,14.00
2012,06,01,11,16,14.00
2012,06,01,11,17,14.00
2012,06,01,11,18,14.10
2012,06,01,11,19,14.10
2012,06,01,11,20,14.10
2012,06,01,11,21,14.10
2012,06,01,11,22,14.10
2012,06,01,11,23,14.10
2012,06,01,11,24,14.00
2012,06,01,11,25,14.00
2012,06,01,11,26,14.00
2012,06,01,11,27,14.00
2012,06,01,11,28,14.00
2012,06,01,11,29,14.00
2012,06,01,11,30,14.00
2012,06,01,11,31,14.00
2012,06,01,11,32,14.00
2012,06,01,11,33,14.00
2012,06,01,11,34,14.00
2012,06,01,11,35,14.10
2012,06,01,11,36,14.10
2012,06,01,11,37,14.10
2012,06,01,11,38,14.10
2012,06,01,11,39,14.20
2012,06,01,11,40,14.20
2012,06,01,11,41,14.20
2012,06,01,11,42,14.20
2012,06,01,11,43,14.30
2012,06,01,11,44,14.30
2012,06,01,11,45,14.30
2012,06,01,11,46,14.40
2012,06,01,11,47,14.40
2012,06,01,11,48,14.40
2012,06,01,11,49,14.50
2012,06,01,11,50,14.50
2012,06,01,11,51,14.60
2012,06,01,11,52,14.60
2012,06,01,11,53,14.60
2012,06,01,11,54,14.70
2012,06,01,11,55,14.70
2012,06,01,11,56,14.80
2012,06,01,11,57,14.80
2012,06,01,11,58,14.90
2012,06,01,11,59,15.00
2012,06,01,12,00,15.00
2012,06,01,12,01,15.00
2012,06,01,12,02,15.00
2012,06,01,12,03,15.00
2012,06,01,12,04,15.00
2012,06,01,12,05,15.10
2012,06,01,12,06,15.20
2012,06,01,12,07,15.30
2012,06,01,12,08,15.30
2012,06,01,12,09,15.40
2012,06,01,12,10,15.40
2012,06,01,12,11,15.50
2012,06,01,12,12,15.60
2012,06,01,12,13,15.60
2012,06,01,12,14,15.70
2012,06,01,12,15,15.70
2012,06,01,12,16,15.80
2012,06,01,12,17,16.00
2012,06,01,12,18,16.10
2012,06,01,12,19,16.20
2012,06,01,12,20,16.30
2012,06,01,12,21,16.40
2012,06,01,12,22,16.50
2012,06,01,12,23,16.60
2012,06,01,12,24,16.70
2012,06,01,12,25,16.80
2012,06,01,12,26,16.90
2012,06,01,12,27,17.00
2012,06,01,12,28,17.10
2012,06,01,12,29,17.30
2012,06,01,12,30,17.30
2012,06,01,12,31,17.40
2012,06,01,12,32,17.60
2012,06,01,12,33,17.70
2012,06,01,12,34,17.70
2012,06,01,12,35,17.70
2012,06,01,12,36,17.80
2012,06,01,12,37,17.80
2012,06,01,12,38,17.90
2012,06,01,12,39,17.80
2012,06,01,12,40,17.70
2012,06,01,12,41,17.50
2012,06,01,12,42,17.30
2012,06,01,12,43,17.30
2012,06,01,12,44,17.20
2012,06,01,12,45,17.20
2012,06,01,12,46,17.20
2012,06,01,12,47,17.20
2012,06,01,12,48,17.20
2012,06,01,12,49,17.20
2012,06,01,12,50,17.30
2012,06,01,12,51,17.40
2012,06,01,12,52,17.40
2012,06,01,12,53,17.40
2012,06,01,12,54,17.40
2012,06,01,12,55,17.50
2012,06,01,12,56,17.50
2012,06,01,12,57,17.50
2012,06,01,12,58,17.50
2012,06,01,12,59,17.40
2012,06,01,13,00,17.30
2012,06,01,13,01,17.30
2012,06,01,13,02,17.30
2012,06,01,13,03,17.40
2012,06,01,13,04,17.50
2012,06,01,13,05,17.60
2012,06,01,13,06,17.60
2012,06,01,13,07,17.70
2012,06,01,13,08,17.70
2012,06,01,13,09,17.70
2012,06,01,13,10,17.80
2012,06,01,13,11,17.90
2012,06,01,13,12,18.00
2012,06,01,13,13,18.10
2012,06,01,13,14,18.10
2012,06,01,13,15,18.20
2012,06,01,13,16,18.20
2012,06,01,13,17,18.20
2012,06,01,13,18,18.20
2012,06,01,13,19,18.20
2012,06,01,13,20,18.30
2012,06,01,13,21,18.30
2012,06,01,13,22,18.30
2012,06,01,13,23,18.30
2012,06,01,13,24,18.30
2012,06,01,13,25,18.20
2012,06,01,13,26,18.20
2012,06,01,13,27,18.20
2012,06,01,13,28,18.30
2012,06,01,13,29,18.30
2012,06,01,13,30,18.40
2012,06,01,13,31,18.40
2012,06,01,13,32,18.40
2012,06,01,13,33,18.30
2012,06,01,13,34,18.20
2012,06,01,13,35,18.10
2012,06,01,13,36,18.00
2012,06,01,13,37,18.00
2012,06,01,13,38,18.00
2012,06,01,13,39,18.00
2012,06,01,13,40,17.90
2012,06,01,13,41,17.90
2012,06,01,13,42,17.90
2012,06,01,13,43,17.90
2012,06,01,13,44,17.80
2012,06,01,13,45,17.60
2012,06,01,13,46,17.50
2012,06,01,13,47,17.50
2012,06,01,13,48,17.40
2012,06,01,13,49,17.40
2012,06,01,13,50,17.40
2012,06,01,13,51,17.40
2012,06,01,13,52,17.40
2012,06,01,13,53,17.40
2012,06,01,13,54,17.40
2012,06,01,13,55,17.40
2012,06,01,13,56,17.40
2012,06,01,13,57,17.30
2012,06,01,13,58,17.30
2012,06,01,13,59,17.40
2012,06,01,14,00,17.30
2012,06,01,14,01,17.30
2012,06,01,14,02,17.30
2012,06,01,14,03,17.20
2012,06,01,14,04,17.20
2012,06,01,14,05,17.30
2012,06,01,14,06,17.30
2012,06,01,14,07,17.30
2012,06,01,14,08,17.30
2012,06,01,14,09,17.20
2012,06,01,14,10,17.30
2012,06,01,14,11,17.30
2012,06,01,14,12,17.30
2012,06,01,14,13,17.20
2012,06,01,14,14,17.20
2012,06,01,14,15,17.10
2012,06,01,14,16,17.10
2012,06,01,14,17,17.00
2012,06,01,14,18,16.90
2012,06,01,14,19,16.90
2012,06,01,14,20,16.80
2012,06,01,14,21,16.80
2012,06,01,14,22,16.80
2012,06,01,14,23,16.90
2012,06,01,14,24,16.90
2012,06,01,14,25,17.00
2012,06,01,14,26,17.10
2012,06,01,14,27,17.30
2012,06,01,14,28,17.30
2012,06,01,14,29,17.40
2012,06,01,14,30,17.50
2012,06,01,14,31,17.50
2012,06,01,14,32,17.60
2012,06,01,14,33,17.70
2012,06,01,14,34,17.80
2012,06,01,14,35,17.90
2012,06,01,14,36,17.90
2012,06,01,14,37,18.00
2012,06,01,14,38,18.00
2012,06,01,14,39,18.10
2012,06,01,14,40,18.10
2012,06,01,14,41,18.10
2012,06,01,14,42,18.10
2012,06,01,14,43,18.20
2012,06,01,14,44,18.10
2012,06,01,14,45,18.00
2012,06,01,14,46,17.90
2012,06,01,14,47,17.90
2012,06,01,14,48,18.00
2012,06,01,14,49,18.00
2012,06,01,14,50,18.10
2012,06,01,14,51,18.10
2012,06,01,14,52,18.10
2012,06,01,14,53,18.10
2012,06,01,14,54,18.10
2012,06,01,14,55,18.10
2012,06,01,14,56,18.00
2012,06,01,14,57,18.00
2012,06,01,14,58,17.90
2012,06,01,14,59,17.90
2012,06,01,15,00,17.90
2012,06,01,15,01,17.90
2012,06,01,15,02,17.90
2012,06,01,15,03,17.90
2012,06,01,15,04,17.90
2012,06,01,15,05,17.90
2012,06,01,15,06,18.00
2012,06,01,15,07,18.00
2012,06,01,15,08,18.10
2012,06,01,15,09,18.10
2012,06,01,15,10,18.10
2012,06,01,15,11,18.20
2012,06,01,15,12,18.20
2012,06,01,15,13,18.10
2012,06,01,15,14,18.10
2012,06,01,15,15,18.00
2012,06,01,15,16,17.90
2012,06,01,15,17,17.90
2012,06,01,15,18,17.80
2012,06,01,15,19,17.80
2012,06,01,15,20,17.80
2012,06,01,15,21,17.70
2012,06,01,15,22,17.60
2012,06,01,15,23,17.50
2012,06,01,15,24,17.40
2012,06,01,15,25,17.40
2012,06,01,15,26,17.40
2012,06,01,15,27,17.40
2012,06,01,15,28,17.40
2012,06,01,15,29,17.50
2012,06,01,15,30,17.50
2012,06,01,15,31,17.50
2012,06,01,15,32,17.60
2012,06,01,15,33,17.60
2012,06,01,15,34,17.70
2012,06,01,15,35,17.70
2012,06,01,15,36,17.60
2012,06,01,15,37,17.50
2012,06,01,15,38,17.40
2012,06,01,15,39,17.30
2012,06,01,15,40,17.30
2012,06,01,15,41,17.30
2012,06,01,15,42,17.20
2012,06,01,15,43,17.10
2012,06,01,15,44,17.10
2012,06,01,15,45,17.10
2012,06,01,15,46,17.00
2012,06,01,15,47,16.90
2012,06,01,15,48,16.90
2012,06,01,15,49,16.80
2012,06,01,15,50,16.80
2012,06,01,15,51,16.80
2012,06,01,15,52,16.70
2012,06,01,15,53,16.80
2012,06,01,15,54,16.80
2012,06,01,15,55,16.80
2012,06,01,15,56,16.80
2012,06,01,15,57,16.90
2012,06,01,15,58,16.90
2012,06,01,15,59,16.90
2012,06,01,16,00,16.80
2012,06,01,16,01,16.80
2012,06,01,16,02,16.80
2012,06,01,16,03,16.80
2012,06,01,16,04,16.80
2012,06,01,16,05,16.70
2012,06,01,16,06,16.70
2012,06,01,16,07,16.70
2012,06,01,16,08,16.70
2012,06,01,16,09,16.70
2012,06,01,16,10,16.70
2012,06,01,16,11,16.70
2012,06,01,16,12,16.70
2012,06,01,16,13,16.70
2012,06,01,16,14,16.60
2012,06,01,16,15,16.60
2012,06,01,16,16,16.50
2012,06,01,16,17,16.50
2012,06,01,16,18,16.60
2012,06,01,16,19,16.60
2012,06,01,16,20,16.60
2012,06,01,16,21,16.70
2012,06,01,16,22,16.70
2012,06,01,16,23,16.70
2012,06,01,16,24,16.70
2012,06,01,16,25,16.70
2012,06,01,16,26,16.70
2012,06,01,16,27,16.70
2012,06,01,16,28,16.70
2012,06,01,16,29,16.60
2012,06,01,16,30,16.60
2012,06,01,16,31,16.50
2012,06,01,16,32,16.50
2012,06,01,16,33,16.40
2012,06,01,16,34,16.40
2012,06,01,16,35,16.30
2012,06,01,16,36,16.30
2012,06,01,16,37,16.30
2012,06,01,16,38,16.20
2012,06,01,16,39,16.20
2012,06,01,16,40,16.20
2012,06,01,16,41,16.20
2012,06,01,16,42,16.20
2012,06,01,16,43,16.10
2012,06,01,16,44,16.10
2012,06,01,16,45,16.10
2012,06,01,16,46,16.10
2012,06,01,16,47,16.00
2012,06,01,16,48,16.00
2012,06,01,16,49,15.90
2012,06,01,16,50,15.90
2012,06,01,16,51,15.90
2012,06,01,16,52,15.90
2012,06,01,16,53,15.90
2012,06,01,16,54,15.80
2012,06,01,16,55,15.80
2012,06,01,16,56,15.80
2012,06,01,16,57,15.70
2012,06,01,16,58,15.70
2012,06,01,16,59,15.70
2012,06,01,17,00,15.60
2012,06,01,17,01,15.60
2012,06,01,17,02,15.60
2012,06,01,17,03,15.60
2012,06,01,17,04,15.60
2012,06,01,17,05,15.50
2012,06,01,17,06,15.40
2012,06,01,17,07,15.30
2012,06,01,17,08,15.30
2012,06,01,17,09,15.30
2012,06,01,17,10,15.30
2012,06,01,17,11,15.20
2012,06,01,17,12,15.20
2012,06,01,17,13,15.20
2012,06,01,17,14,15.20
2012,06,01,17,15,15.10
2012,06,01,17,16,15.10
2012,06,01,17,17,15.10
2012,06,01,17,18,15.10
2012,06,01,17,19,15.10
2012,06,01,17,20,15.10
2012,06,01,17,21,15.10
2012,06,01,17,22,15.10
2012,06,01,17,23,15.10
2012,06,01,17,24,15.10
2012,06,01,17,25,15.10
